THAICOM 1

导读 | 星芒AI

THAICOM 1 是泰国首颗通信卫星,由休斯飞机公司制造,于1985年12月发射。该卫星采用HS-395卫星平台,搭载C波段转发器,主要用于电视广播、电话和数据传输等通信服务。它在轨运行期间极大地促进了泰国的通信发展,提升了国家的广播和远程通信能力。THAICOM 1 由泰国国际通信卫星公司(Thaicom Public Company Limited)运营,标志着泰国在航天和通信领域的重要里程碑。

基本信息
目录编号:
22931
目录名称:
THAICOM 1
国际标识:
1993-078B
轨道中心:
EARTH
卫星名称:
THAICOM 1
卫星全名:
--
卫星状态:
在轨 (已飞行11683 天)
发射日期:
1993-12-18 UTC
国别 :
(TH)
星等 :
--
轨道信息
数据来源 国际轨道数据 AOE轨道数据
星历时间 2025-12-13T02:48:18+0800
15小时前
查看轨道信息
2025-12-13T02:00:00+0800
16小时前
查看轨道信息
半长轴 42473.118km 42473.375km
偏心率 0.0008551 0.0008431
轨道倾角 11.595° 11.595°
近地点辐角 211.032° 209.968°
升交点赤经 36.256° 36.256°
平近点角 156.421° 145.503°
近地点 36058.664km 36059.43km
远地点 36131.302km 36131.05km
周期 1451.881分钟 1451.894分钟
每日圈数 0.991817 0.991808
详细信息
使用方式:
暂无
2D轨道图
3D轨道图
轨道高度分析图
轨道倾角分析图
轨道综合分析图
查看轨道综合分析图